Aeroporto :
LOGIN :

Iscrizione | Disclaimer

   EN    FR    IT 

 










Sommario :    VFR   VFR Marginale   IFR   IFR Intensivo   IFR Molto Intensivo
Visibilità : 
Base nubi : 
>= 8 km
>= 3000ft
5 / 8 km
1000 / 3000 ft
1500m / 5 km
500 / 1000 ft
800 / 1500m
200 / 500 ft
< 800m
< 200 ft
Simboli :   Temporali  Nebbia  Neve Forte  Precipitazioni Forti  Vento > 20 kt
SIGMETs :   Varie  Temporali  Ghiacco  Turbolenza  Onda orograficha  Ceneri Vulcaniche






- Altitudine del aeroporto : 598 ft
- Codice IATA : BQH


EGKB - Biggin Hill

ULTIMO METAR :
  • 022050Z 13005KT 9999 BKN020 14/10 Q1015

METARs OBSOLETI :
  • 021950Z 14005KT 9999 FEW019 14/10 Q1015
  • 021920Z 14005KT 9999 FEW025 14/10 Q1015
  • 021850Z VRB02KT CAVOK 14/11 Q1015
  • 021820Z VRB03KT CAVOK 15/10 Q1015

TAF TAF EGKB
Valido dal 02 a 18 ore il 02 a 22 ore UTC


021655Z 0218/0222 17005KT 9999 FEW020
TEMPO 0219/0222 7000 SHRA BKN014
PROB30
TEMPO 0219/0222 4000 +SHRA



MetMap, La meteo Aeronautica in un colpo d'occhio ! - Copyright ORBIFLY Dicembre 2007 - Disclaimer

ORBIFLY MET'MAP TEAM :

Programmazione e sviluppo : Alexandra Zaïnal
Concezione : Baudouin d'Aumeries
Aiuto per la programmazione : Marc-Olivier Méhu
Supporto tecnico e logistico : Manuel Goepfert
Aiuto per la traduzione : Arnaldo La Scala

Contatto : metmap@orbifly.com




FONTI E CREDITI :

   NOAA